This demonstration page uses our WeatherBlox Daily Observations layout. Learn more.

Left ArrowRight Arrow

Hourly Observations for December 16, 2020

Temp ( °F °C ) Dew Point ( °F °C ) Humidity (%) Winds ( mph kmh ) Pressure ( in mb ) Visibility ( mi km ) Precip ( " mm )
12:53 am 00:53 Cloudy 31 -0.6 20 -6.7 64 64 ENE 6 9 30.10 1019 10 16 0.00 0.00
1:53 am 01:53 Cloudy 32 0 21 -6.1 64 64 E 6 9 30.09 1019 10 16 0.00 0.00
2:53 am 02:53 Cloudy with Light Snow 31 -0.6 21 -6.1 67 67 NE 5 7 30.08 1019 10 16 0.00 0.00
3:53 am 03:53 Cloudy with Light Snow 31 -0.6 22 -5.6 69 69 ENE 8 13 30.05 1018 6 10 0.00 0.00
4:53 am 04:53 Cloudy with Light Snow 31 -0.6 23 -5 72 72 E 7 11 30.04 1017 5 8 0.00 0.00
5:26 am 05:26 Cloudy with Light Snow 30 -1.1 24 -4.4 79 79 E 8 13 30.04 1017 3 4 0.00 0.00
5:53 am 05:53 Cloudy with Light Snow 30 -1.1 24 -4.4 79 79 E 9 15 29.99 1016 5 8 0.00 0.00
6:20 am 06:20 Cloudy with Light Snow 30 -1.1 24 -4.4 79 79 E 6 9 30.02 1016 3 5 0.00 0.00
6:53 am 06:53 Cloudy with Light Snow 30 -1.1 25 -3.9 82 82 E 5 7 30.00 1016 4 6 0.00 0.00
7:15 am 07:15 Cloudy with Light Snow 30 -1.1 25 -3.9 82 82 ESE 5 7 30.02 1016 4 6 0.00 0.00
7:26 am 07:26 Cloudy with Light Snow 30 -1.1 25 -3.9 82 82 E 6 9 30.02 1016 3 5 0.00 0.00
7:35 am 07:35 Cloudy with Light Snow 30 -1.1 26 -3.3 85 85 E 6 9 30.01 1016 3 5 0.00 0.00
7:38 am 07:38 Cloudy with Light Snow 30 -1.1 26 -3.3 85 85 E 6 9 30.01 1016 3 4 0.00 0.00
7:53 am 07:53 Cloudy with Light Snow 30 -1.1 26 -3.3 85 85 E 6 9 29.98 1015 2 3 0.00 0.00
8:03 am 08:03 Cloudy with Light Snow 30 -1.1 27 -2.8 88 88 E 7 11 30.00 1016 3 4 0.00 0.00
8:36 am 08:36 Cloudy with Light Snow 30 -1.1 27 -2.8 88 88 E 6 9 30.00 1016 3 5 0.00 0.00
8:42 am 08:42 Cloudy with Light Snow 31 -0.6 27 -2.8 85 85 E 5 7 30.00 1016 2 3 0.00 0.00
8:53 am 08:53 Cloudy with Light Snow 31 -0.6 27 -2.8 85 85 E 3 6 29.98 1015 3 4 0.00 0.00
9:53 am 09:53 Cloudy with Light Snow 31 -0.6 28 -2.2 89 89 E 7 11 29.97 1015 3 5 0.00 0.00
10:20 am 10:20 Cloudy with Light Snow 32 0 29 -1.7 88 88 ENE 3 6 29.98 1015 5 8 0.01 0.25
10:32 am 10:32 Cloudy with Light Wintry Mix 32 0 29 -1.7 88 88 ENE 3 6 29.99 1016 6 10 0.03 0.76
10:50 am 10:50 Cloudy with Mist and Fog 34 1 28 -2 81 81 ENE 3 6 29.98 1015 6 10 0.04 1.02
10:53 am 10:53 Cloudy 33 0.6 29 -1.7 85 85 E 5 7 29.97 1015 7 11 0.04 1.02
11:12 am 11:12 Cloudy 33 0.6 29 -1.7 85 85 Calm 29.98 1015 7 11 0.01 0.25
11:53 am 11:53 Cloudy 33 0.6 30 -1.1 89 89 Calm 29.94 1014 8 13 0.02 0.51
12:03 pm 12:03 Cloudy 34 1.1 30 -1.1 85 85 Calm 29.95 1014 7 11 0.00 0.00
12:27 pm 12:27 Cloudy with Light Snow 34 1.1 30 -1.1 85 85 Calm 29.93 1014 2 3 0.00 0.00
12:34 pm 12:34 Cloudy with Light Snow 33 0.6 30 -1.1 89 89 ENE 3 6 29.93 1014 1 2 0.00 0.00
12:53 pm 12:53 Cloudy with Light Snow 33 0.6 31 -0.6 92 92 Calm 29.91 1013 1 2 0.00 0.00
1:03 pm 13:03 Mostly Cloudy with Snow 33 0.6 31 -0.6 92 92 Calm 29.91 1013 1 1 0.01 0.25
1:24 pm 13:24 Cloudy with Light Snow 33 0.6 31 -0.6 92 92 NNE 3 6 29.90 1013 1 2 0.01 0.25
1:39 pm 13:39 Cloudy with Light Snow 33 0.6 31 -0.6 92 92 Calm 29.91 1013 2 3 0.04 1.02
1:51 pm 13:51 Cloudy with Light Snow 34 1 30 -1 87 87 Calm 29.91 1013 2 3 0.05 1.27
1:53 pm 13:53 Cloudy with Light Snow 33 0.6 31 -0.6 92 92 Calm 29.89 1012 2 3 0.05 1.27
2:26 pm 14:26 Cloudy with Light Snow 34 1.1 32 0 92 92 NW 5 7 29.89 1012 3 5 0.02 0.51
2:41 pm 14:41 Cloudy with Mist and Fog 33 0.6 31 -0.6 92 92 NW 3 6 29.90 1013 3 4 0.03 0.76
2:48 pm 14:48 Cloudy with Mist and Fog 34 1 30 -1 87 87 NW 5 7 29.90 1013 3 5 0.03 0.76
2:53 pm 14:53 Cloudy with Mist and Fog 33 0.6 31 -0.6 92 92 NNW 5 7 29.88 1012 3 5 0.03 0.76
3:23 pm 15:23 Cloudy with Mist and Fog 34 1.1 32 0 92 92 NE 5 7 29.88 1012 3 5 0.00 0.00
3:45 pm 15:45 Cloudy with Mist and Fog 34 1.1 32 0 92 92 NW 5 7 29.90 1013 3 5 0.00 0.00
3:53 pm 15:53 Cloudy with Mist and Fog 34 1.1 32 0 92 92 WNW 6 9 29.90 1012 3 5 0.00 0.00
4:15 pm 16:15 Cloudy with Mist and Fog 34 1.1 32 0 92 92 NNW 3 6 29.92 1013 4 6 0.00 0.00
4:53 pm 16:53 Cloudy with Mist and Fog 34 1.1 32 0 92 92 N 5 7 29.92 1013 3 4 0.00 0.00
5:01 pm 17:01 Cloudy with Mist and Fog 33 0.6 32 0 96 96 NNW 3 6 29.93 1014 2 2 0.00 0.00
5:15 pm 17:15 Cloudy with Mist and Fog 33 0.6 31 -0.6 92 92 NNW 5 7 29.94 1014 2 3 0.00 0.00
5:22 pm 17:22 Cloudy with Mist and Fog 33 0.6 31 -0.6 92 92 NNW 5 7 29.94 1014 2 3 0.00 0.00
5:53 pm 17:53 Cloudy with Mist and Fog 33 0.6 31 -0.6 92 92 NNW 6 9 29.93 1013 3 4 0.00 0.00
6:01 pm 18:01 Cloudy with Mist and Fog 33 0.6 31 -0.6 92 92 NNW 5 7 29.94 1014 4 6 0.00 0.00
6:24 pm 18:24 Cloudy with Mist and Fog 33 0.6 31 -0.6 92 92 NNW 5 7 29.94 1014 3 5 0.00 0.00
6:53 pm 18:53 Cloudy with Light Snow 33 0.6 31 -0.6 92 92 NW 5 7 29.93 1014 3 5 0.00 0.00
7:15 pm 19:15 Cloudy with Mist and Fog 33 0.6 30 -1.1 89 89 NW 8 13 29.96 1015 4 6 0.00 0.00
7:28 pm 19:28 Cloudy with Light Snow 33 0.6 30 -1.1 89 89 WNW 8 13 29.96 1015 4 6 0.00 0.00
7:48 pm 19:48 Cloudy with Light Snow 32 0 28 -2 87 87 NNW 7 11 29.96 1015 3 4 0.01 0.25
7:53 pm 19:53 Cloudy with Light Snow 32 0 29 -1.7 88 88 NNW 7 11 29.94 1014 3 4 0.01 0.25
8:28 pm 20:28 Cloudy with Mist and Fog 32 0 30 -1.1 92 92 NW 3 6 29.96 1015 3 5 0.00 0.00
8:53 pm 20:53 Cloudy with Mist and Fog 32 0 30 -1.1 92 92 WNW 7 11 29.96 1014 5 8 0.00 0.00
9:05 pm 21:05 Cloudy with Mist and Fog 32 0 30 -1.1 92 92 WNW 5 7 29.97 1015 4 6 0.00 0.00
9:53 pm 21:53 Cloudy with Mist and Fog 32 0 29 -1.7 88 88 WNW 8 13 29.97 1015 5 8 0.00 0.00
10:53 pm 22:53 Cloudy with Mist and Fog 31 -0.6 28 -2.2 89 89 W 6 9 29.99 1016 5 8 0.00 0.00
11:27 pm 23:27 Cloudy with Mist and Fog 31 -0.6 27 -2.8 85 85 WNW 8 13 30.02 1016 6 10 0.00 0.00
11:53 pm 23:53 Cloudy with Mist and Fog 30 -1.1 26 -3.3 85 85 WNW 9 15 30.00 1016 6 10 0.00 0.00

Powered by AerisWeather